• In Latvia
  • List of Countries
  • For 7 days
  • Water Temperature
  • Satellite Maps
  • Weather Map
  • Weather Widgets
  • user-avatar
    Login

    Hourly Weather Macerata

    Today, 20 February, Tuesday

    Time Temperature Precipitation Wind Pressure Humidity
    00:00 +3°C° 0.4 mm 3 mps 732 mmHg 90%
    01:00 +2°C° 0 mm 3 mps 731 mmHg 88%
    02:00 +2°C° 0.3 mm 3 mps 731 mmHg 88%
    03:00 +2°C° 0.3 mm 3 mps 730 mmHg 89%
    04:00 +2°C° 0.3 mm 3 mps 730 mmHg 89%
    05:00 +2°C° 0.2 mm 3 mps 730 mmHg 89%
    06:00 +2°C° 0.2 mm 3 mps 730 mmHg 90%
    07:00 +1°C° 0 mm 3 mps 730 mmHg 89%
    08:00 +2°C° 0.2 mm 3 mps 730 mmHg 89%
    09:00 +1°C° 0.2 mm 4 mps 730 mmHg 88%
    10:00 +1°C° 0.2 mm 4 mps 730 mmHg 87%
    11:00 +3°C° 0.1 mm 4 mps 730 mmHg 86%
    12:00 +3°C° 0.1 mm 4 mps 729 mmHg 84%
    13:00 +4°C° 0.1 mm 4 mps 729 mmHg 83%
    14:00 +4°C° 0.2 mm 4 mps 729 mmHg 84%
    15:00 +4°C° 0.2 mm 4 mps 728 mmHg 84%
    16:00 +4°C° 0.2 mm 3 mps 728 mmHg 85%
    17:00 +3°C° 0.2 mm 3 mps 728 mmHg 87%
    18:00 +3°C° 0.2 mm 3 mps 728 mmHg 88%
    19:00 +2°C° 0.2 mm 3 mps 728 mmHg 90%
    20:00 +2°C° 0.1 mm 3 mps 728 mmHg 90%
    21:00 +2°C° 0.1 mm 3 mps 728 mmHg 90%
    22:00 +2°C° 0.1 mm 3 mps 728 mmHg 90%
    23:00 +2°C° 0.1 mm 3 mps 727 mmHg 90%

    Tomorrow, 21 February, Wednesday

    Time Temperature Precipitation Wind Pressure Humidity
    00:00 +2°C° 0.1 mm 3 mps 727 mmHg 90%
    01:00 +2°C° 0.1 mm 3 mps 727 mmHg 90%
    02:00 +2°C° 0.2 mm 3 mps 727 mmHg 90%
    03:00 +2°C° 0.2 mm 3 mps 726 mmHg 90%
    04:00 +1°C° 0.2 mm 4 mps 726 mmHg 90%
    05:00 +1°C° 0.6 mm 4 mps 726 mmHg 90%
    06:00 +3°C° 0.6 mm 4 mps 726 mmHg 90%
    07:00 +3°C° 0.6 mm 4 mps 726 mmHg 90%
    08:00 +3°C° 0.7 mm 4 mps 726 mmHg 89%
    09:00 +3°C° 0.7 mm 4 mps 726 mmHg 88%
    10:00 +4°C° 0.7 mm 4 mps 727 mmHg 87%
    11:00 +4°C° 0.8 mm 4 mps 726 mmHg 87%
    12:00 +3°C° 0.8 mm 5 mps 726 mmHg 87%
    13:00 +3°C° 0.8 mm 5 mps 726 mmHg 87%
    14:00 +3°C° 1 mm 5 mps 725 mmHg 88%
    15:00 +3°C° 1 mm 5 mps 725 mmHg 89%
    16:00 +3°C° 1 mm 5 mps 725 mmHg 90%
    17:00 +3°C° 1.3 mm 5 mps 725 mmHg 91%
    18:00 +3°C° 1.3 mm 5 mps 725 mmHg 92%
    19:00 +2°C° 1.3 mm 5 mps 724 mmHg 94%
    20:00 +3°C° 1.2 mm 4 mps 725 mmHg 94%
    21:00 +3°C° 1.2 mm 4 mps 725 mmHg 95%
    22:00 +3°C° 1.2 mm 3 mps 725 mmHg 95%
    23:00 +3°C° 0.4 mm 3 mps 725 mmHg 95%

    Day after tomorrow, 22 February, Thursday

    Time Temperature Precipitation Wind Pressure Humidity
    00:00 +3°C° 0.4 mm 3 mps 724 mmHg 94%
    01:00 +3°C° 0.4 mm 3 mps 724 mmHg 94%
    02:00 +3°C° 0.3 mm 3 mps 724 mmHg 93%
    03:00 +3°C° 0.3 mm 3 mps 724 mmHg 92%
    04:00 +3°C° 0.3 mm 3 mps 724 mmHg 92%
    05:00 +3°C° 0.2 mm 3 mps 724 mmHg 91%
    06:00 +3°C° 0.2 mm 3 mps 724 mmHg 90%
    07:00 +3°C° 0.2 mm 3 mps 724 mmHg 89%
    08:00 +3°C° 0.5 mm 3 mps 725 mmHg 88%
    09:00 +4°C° 0.5 mm 3 mps 725 mmHg 88%
    10:00 +6°C° 0.5 mm 2 mps 725 mmHg 88%
    11:00 +7°C° 0.5 mm 2 mps 726 mmHg 84%
    12:00 +7°C° 0.5 mm 2 mps 726 mmHg 81%
    13:00 +8°C° 0.5 mm 2 mps 726 mmHg 78%
    14:00 +8°C° 0.2 mm 2 mps 726 mmHg 77%
    15:00 +8°C° 0.2 mm 2 mps 726 mmHg 77%
    16:00 +8°C° 0.2 mm 2 mps 726 mmHg 76%
    17:00 +7°C° 0.2 mm 2 mps 726 mmHg 79%
    18:00 +6°C° 0.2 mm 2 mps 726 mmHg 82%
    19:00 +5°C° 0.2 mm 2 mps 727 mmHg 85%
    20:00 +4°C° 0.1 mm 3 mps 727 mmHg 87%
    21:00 +4°C° 0.1 mm 3 mps 727 mmHg 89%
    22:00 +3°C° 0.1 mm 3 mps 727 mmHg 91%
    23:00 +4°C° 0.2 mm 3 mps 728 mmHg 92%

    23 February, Friday

    Time Temperature Precipitation Wind Pressure Humidity
    00:00 +4°C° 0.2 mm 3 mps 728 mmHg 93%
    01:00 +4°C° 0.2 mm 3 mps 728 mmHg 94%
    02:00 +5°C° 0.1 mm 2 mps 728 mmHg 94%
    03:00 +5°C° 0.1 mm 2 mps 728 mmHg 94%
    04:00 +5°C° 0.1 mm 2 mps 727 mmHg 94%
    05:00 +5°C° 0.1 mm 2 mps 728 mmHg 94%
    06:00 +5°C° 0.1 mm 2 mps 728 mmHg 94%
    07:00 +5°C° 0.1 mm 2 mps 728 mmHg 94%
    08:00 +4°C° 0.1 mm 3 mps 729 mmHg 93%
    09:00 +5°C° 0.1 mm 3 mps 729 mmHg 91%
    10:00 +5°C° 0.1 mm 3 mps 730 mmHg 89%
    11:00 +5°C° 0.4 mm 3 mps 729 mmHg 90%
    12:00 +6°C° 0.4 mm 4 mps 729 mmHg 90%
    13:00 +6°C° 0.4 mm 4 mps 729 mmHg 91%
    14:00 +5°C° 1.4 mm 5 mps 729 mmHg 92%
    15:00 +5°C° 1.4 mm 5 mps 729 mmHg 94%
    16:00 +4°C° 1.4 mm 6 mps 729 mmHg 96%
    17:00 +5°C° 2 mm 5 mps 729 mmHg 96%
    18:00 +5°C° 2 mm 5 mps 728 mmHg 96%
    19:00 +5°C° 2 mm 5 mps 728 mmHg 97%
    20:00 +5°C° 1.9 mm 5 mps 728 mmHg 97%
    21:00 +5°C° 1.9 mm 5 mps 728 mmHg 96%
    22:00 +6°C° 1.9 mm 5 mps 728 mmHg 96%
    23:00 +5°C° 0.5 mm 6 mps 728 mmHg 94%

    24 February, Saturday

    Time Temperature Precipitation Wind Pressure Humidity
    00:00 +5°C° 0.5 mm 6 mps 728 mmHg 93%
    01:00 +6°C° 0.5 mm 7 mps 728 mmHg 92%
    02:00 +6°C° 0.4 mm 7 mps 728 mmHg 92%
    03:00 +6°C° 0.4 mm 7 mps 728 mmHg 91%
    04:00 +5°C° 0.4 mm 7 mps 728 mmHg 91%
    05:00 +5°C° 0.3 mm 7 mps 728 mmHg 91%
    06:00 +5°C° 0.3 mm 6 mps 728 mmHg 90%
    07:00 +5°C° 0.3 mm 6 mps 729 mmHg 90%
    08:00 +6°C° 0.5 mm 5 mps 730 mmHg 90%
    09:00 +7°C° 0.5 mm 5 mps 730 mmHg 89%
    10:00 +7°C° 0.5 mm 4 mps 731 mmHg 89%
    11:00 +7°C° 0.2 mm 4 mps 731 mmHg 87%
    12:00 +7°C° 0.2 mm 5 mps 731 mmHg 86%
    13:00 +7°C° 0.2 mm 5 mps 731 mmHg 84%
    14:00 +7°C° 0.3 mm 5 mps 731 mmHg 85%
    15:00 +6°C° 0.3 mm 5 mps 731 mmHg 85%
    16:00 +6°C° 0.3 mm 5 mps 731 mmHg 86%
    17:00 +6°C° 0.5 mm 4 mps 731 mmHg 87%
    18:00 +5°C° 0.5 mm 4 mps 732 mmHg 89%
    19:00 +5°C° 0.5 mm 4 mps 732 mmHg 90%
    20:00 +5°C° 0.3 mm 4 mps 732 mmHg 90%
    21:00 +5°C° 0.3 mm 4 mps 732 mmHg 91%
    22:00 +5°C° 0.3 mm 4 mps 733 mmHg 91%
    23:00 +4°C° 0.1 mm 3 mps 732 mmHg 91%

    25 February, Sunday

    Time Temperature Precipitation Wind Pressure Humidity
    00:00 +4°C° 0.1 mm 3 mps 732 mmHg 91%
    01:00 +4°C° 0.1 mm 3 mps 732 mmHg 91%
    02:00 +4°C° 0.1 mm 3 mps 732 mmHg 91%
    03:00 +4°C° 0.1 mm 3 mps 732 mmHg 90%
    04:00 +3°C° 0.1 mm 3 mps 731 mmHg 90%
    05:00 +3°C° 0.2 mm 3 mps 731 mmHg 90%
    06:00 +3°C° 0.2 mm 3 mps 731 mmHg 90%
    07:00 +3°C° 0.2 mm 3 mps 731 mmHg 90%
    08:00 +3°C° 0.4 mm 4 mps 731 mmHg 89%
    09:00 +3°C° 0.4 mm 4 mps 731 mmHg 89%
    10:00 +3°C° 0.4 mm 4 mps 731 mmHg 89%
    11:00 +2°C° 0.8 mm 5 mps 731 mmHg 90%
    12:00 +2°C° 0.8 mm 5 mps 731 mmHg 92%
    13:00 +2°C° 0.8 mm 5 mps 731 mmHg 94%
    14:00 +1°C° 1.1 mm 5 mps 730 mmHg 94%
    15:00 +1°C° 1.1 mm 5 mps 730 mmHg 94%
    16:00 +1°C° 1.1 mm 5 mps 730 mmHg 95%
    17:00 +1°C° 0.6 mm 5 mps 730 mmHg 95%
    18:00 0°C° 0.6 mm 5 mps 730 mmHg 95%
    19:00 0°C° 0.6 mm 5 mps 730 mmHg 95%
    20:00 0°C° 0.3 mm 5 mps 729 mmHg 95%
    21:00 0°C° 0.3 mm 5 mps 729 mmHg 95%
    22:00 0°C° 0.3 mm 4 mps 729 mmHg 95%
    23:00 0°C° 0.3 mm 4 mps 729 mmHg 95%
    Show more